KO4LFZ Weather Reports


time (UTC)temp
F
wind
direction
speed
knots
gust
knots
rain 1hr
in
rain 24hr
in
rain mn
in
humidity
%
barometer
mb
20260906022251 82 219 0.0 0.0 0.00 0.00 0.00 86 1011.6
20260906021747 82 221 0.0 0.0 0.00 0.00 0.00 87 1011.4
20260906021246 81 228 0.0 0.0 0.00 0.00 0.00 87 1011.5
20260906020740 82 225 0.0 0.0 0.00 0.00 0.00 87 1011.4
20260906020235 82 226 0.0 0.0 0.00 0.00 0.00 87 1011.3
20260906015730 82 224 0.0 0.0 0.00 0.00 0.00 86 1011.1
20260906015228 83 227 0.0 0.0 0.00 0.00 0.00 84 1011.2
20260906014723 83 209 0.0 0.0 0.00 0.00 0.00 84 1011.2
20260906014219 83 217 0.0 0.0 0.00 0.00 0.00 85 1011.1
20260906013715 83 213 0.0 0.0 0.00 0.00 0.00 85 1010.9
20260906013214 83 210 0.0 0.0 0.00 0.00 0.00 86 1011.1
20260906012709 84 236 0.0 0.0 0.00 0.00 0.00 84 1011.2
20260906012204 84 207 0.0 0.0 0.00 0.00 0.00 78 1011.0
20260906011700 84 220 0.0 0.0 0.00 0.00 0.00 77 1011.2
20260906011154 85 225 0.0 0.0 0.00 0.00 0.00 78 1010.7
20260906010649 85 222 0.0 0.0 0.00 0.00 0.00 78 1010.8
20260906010146 85 201 0.0 0.0 0.00 0.00 0.00 81 1010.7
20260906005645 86 226 0.0 0.0 0.00 0.00 0.00 80 1010.9
20260906005144 87 231 0.0 0.0 0.00 0.00 0.00 76 1010.8
20260906004643 87 215 0.0 0.0 0.00 0.00 0.00 74 1010.7
20260906004139 87 213 0.0 0.0 0.00 0.00 0.00 74 1010.7
20260906003634 87 219 0.0 0.0 0.00 0.00 0.00 76 1010.5
20260906003130 88 227 0.0 0.0 0.00 0.00 0.00 76 1010.6
20260906002625 89 215 0.0 0.0 0.00 0.00 0.00 73 1010.9
20260906002119 91 231 0.0 0.0 0.00 0.00 0.00 73 1010.8
20260906001614 92 225 0.0 0.0 0.00 0.00 0.00 69 1010.6
20260906001109 92 213 0.0 0.0 0.00 0.00 0.00 64 1010.7
20260906000605 93 206 0.0 0.0 0.00 0.00 0.00 64 1011.0
20260906000100 93 212 0.0 0.0 0.00 0.00 0.00 61 1010.9
20260905235559 93 230 0.0 0.0 0.00 0.00 0.00 62 1011.0
20260905235054 93 193 0.0 0.0 0.00 0.00 0.00 63 1011.1
20260905234550 94 238 0.0 0.0 0.00 0.00 0.00 64 1011.2
20260905234044 95 241 0.0 0.0 0.00 0.00 0.00 63 1011.1
20260905233539 96 234 0.0 0.0 0.00 0.00 0.00 60 1011.2
20260905233039 96 242 0.0 0.0 0.00 0.00 0.00 61 1011.1
20260905232534 95 239 0.0 0.0 0.00 0.00 0.00 63 1011.2
20260905232030 95 248 0.0 0.0 0.00 0.00 0.00 62 1011.1
20260905231525 93 235 0.0 0.0 0.00 0.00 0.00 64 1011.0
20260905231021 93 241 0.0 0.0 0.00 0.00 0.00 63 1010.9
20260905230520 93 239 0.0 0.0 0.00 0.00 0.00 63 1010.8
20260905230019 93 247 0.0 0.0 0.00 0.00 0.00 62 1011.0
20260905225514 93 258 0.0 0.0 0.00 0.00 0.00 61 1011.1
20260905225009 93 278 0.0 0.0 0.00 0.00 0.00 61 1011.0
20260905224504 94 262 0.0 0.0 0.00 0.00 0.00 60 1011.0
20260905224003 95 274 0.0 0.0 0.00 0.00 0.00 59 1010.9
20260905223501 97 334 0.0 0.0 0.00 0.00 0.00 55 1010.8
20260905222956 98 294 0.0 0.0 0.00 0.00 0.00 52 1010.8
20260905222456 98 278 0.0 0.0 0.00 0.00 0.00 51 1010.9
20260905221951 99 293 0.0 0.0 0.00 0.00 0.00 54 1011.0
20260905221448 99 322 0.0 0.0 0.00 0.00 0.00 53 1010.8
20260905220944 99 329 0.0 0.0 0.00 0.00 0.00 51 1011.0
20260905220439 100 265 0.0 0.0 0.00 0.00 0.00 49 1011.1
20260905215938 101 241 0.0 0.0 0.00 0.00 0.00 50 1010.9
20260905215434 103 262 0.0 0.0 0.00 0.00 0.00 47 1011.2
20260905214930 103 232 0.0 0.0 0.00 0.00 0.00 42 1011.0
20260905214426 101 231 0.0 0.0 0.00 0.00 0.00 46 1011.0
20260905213920 100 170 0.0 0.0 0.00 0.00 0.00 49 1011.0
20260905213416 100 316 0.0 0.0 0.00 0.00 0.00 47 1011.0
20260905212911 100 123 0.0 0.0 0.00 0.00 0.00 46 1011.1
20260905212406 102 12 0.0 0.0 0.00 0.00 0.00 47 1011.2
20260905211900 103 250 0.0 0.0 0.00 0.00 0.00 42 1011.2
20260905211355 101 221 0.0 0.0 0.00 0.00 0.00 45 1011.2
20260905210852 100 17 0.0 0.0 0.00 0.00 0.00 47 1011.3
20260905210351 100 13 0.0 0.0 0.00 0.00 0.00 47 1011.3
20260905205850 101 336 0.0 0.0 0.00 0.00 0.00 48 1011.4
20260905205345 100 246 0.0 0.0 0.00 0.00 0.00 47 1011.4
20260905204844 100 70 0.0 0.0 0.00 0.00 0.00 46 1011.4
20260905204341 100 275 0.0 0.0 0.00 0.00 0.00 48 1011.5
20260905203839 98 67 0.0 0.0 0.00 0.00 0.00 48 1011.5
20260905203335 98 79 0.0 0.0 0.00 0.00 0.00 51 1011.6
20260905202831 102 351 0.0 0.0 0.00 0.00 0.00 48 1011.5
20260905202326 104 202 0.0 0.0 0.00 0.00 0.00 45 1011.5
20260905201822 103 231 0.0 0.0 0.00 0.00 0.00 46 1011.8
20260905201317 102 260 0.0 0.0 0.00 0.00 0.00 47 1012.0
20260905200816 101 232 0.0 0.0 0.00 0.00 0.00 47 1012.0
20260905200313 101 262 0.0 0.0 0.00 0.00 0.00 47 1011.9
20260905195810 100 225 0.0 0.0 0.00 0.00 0.00 48 1012.2
20260905195307 100 259 0.0 0.0 0.00 0.00 0.00 48 1012.2
20260905194802 100 44 0.0 0.0 0.00 0.00 0.00 51 1012.1
20260905194300 100 349 0.0 0.0 0.00 0.00 0.00 51 1012.6
20260905193754 100 230 0.0 0.0 0.00 0.00 0.00 48 1012.4
20260905193249 100 30 0.0 0.0 0.00 0.00 0.00 49 1012.5
20260905192739 100 95 0.0 0.0 0.00 0.00 0.00 48 1012.6
20260905192236 101 248 0.0 0.0 0.00 0.00 0.00 46 1012.7
20260905191735 100 224 0.0 0.0 0.00 0.00 0.00 49 1012.8
20260905191233 99 261 0.0 0.0 0.00 0.00 0.00 49 1012.8
20260905190732 98 236 0.0 0.0 0.00 0.00 0.00 52 1012.8
20260905190231 99 237 0.0 0.0 0.00 0.00 0.00 51 1012.8
20260905185730 99 239 0.0 0.0 0.00 0.00 0.00 49 1013.1
20260905185225 98 331 0.0 0.0 0.00 0.00 0.00 52 1013.1
20260905184719 99 10 0.0 0.0 0.00 0.00 0.00 51 1013.2
20260905184218 100 1 0.0 0.0 0.00 0.00 0.00 50 1013.2
20260905183718 98 234 0.0 0.0 0.00 0.00 0.00 51 1013.1
20260905183214 97 27 0.0 0.0 0.00 0.00 0.00 56 1013.2
20260905182712 97 267 0.0 0.0 0.00 0.00 0.00 54 1013.2
20260905182207 98 343 0.0 0.0 0.00 0.00 0.00 54 1013.5
20260905181703 97 294 0.0 0.0 0.00 0.00 0.00 56 1013.3
20260905181201 96 257 0.0 0.0 0.00 0.00 0.00 62 1013.5
20260905180656 96 238 0.0 0.0 0.00 0.00 0.00 57 1013.4
20260905180151 97 338 0.0 0.0 0.00 0.00 0.00 57 1013.5
20260905175650 98 284 0.0 0.0 0.00 0.00 0.00 54 1013.5
20260905175146 99 242 0.0 0.0 0.00 0.00 0.00 54 1013.5
20260905174642 99 287 0.0 0.0 0.00 0.00 0.00 51 1013.4
20260905174137 98 279 0.0 0.0 0.00 0.00 0.00 53 1013.5
20260905173633 98 231 0.0 0.0 0.00 0.00 0.00 55 1013.6
20260905173128 98 282 0.0 0.0 0.00 0.00 0.00 55 1013.6
20260905172627 96 354 0.0 0.0 0.00 0.00 0.00 54 1013.9
20260905172122 95 348 0.0 0.0 0.00 0.00 0.00 56 1013.9
20260905171618 96 238 0.0 0.0 0.00 0.00 0.00 56 1013.9
20260905171114 98 7 0.0 0.0 0.00 0.00 0.00 54 1013.9
20260905170611 98 281 0.0 0.0 0.00 0.00 0.00 57 1013.8
20260905170105 98 6 0.0 0.0 0.00 0.00 0.00 54 1014.0
20260905165559 97 252 0.0 0.0 0.00 0.00 0.00 57 1014.0
20260905165054 97 296 0.0 0.0 0.00 0.00 0.00 55 1014.1
20260905164549 97 339 0.0 0.0 0.00 0.00 0.00 57 1014.2
20260905164044 97 341 4.3 11.3 0.00 0.00 0.00 59 1014.2
20260905163540 96 251 0.0 0.0 0.00 0.00 0.00 61 1014.4
20260905163036 97 289 0.0 0.0 0.00 0.00 0.00 64 1014.2
20260905162532 96 232 0.0 0.0 0.00 0.00 0.00 58 1014.6
20260905162026 96 245 0.0 0.0 0.00 0.00 0.00 60 1014.3
20260905161521 97 352 0.0 0.0 0.00 0.00 0.00 59 1014.5
20260905161018 96 249 0.0 0.0 0.00 0.00 0.00 62 1014.6
20260905160512 98 270 0.0 0.0 0.00 0.00 0.00 61 1014.6
20260905160011 97 223 0.0 0.0 0.00 0.00 0.00 59 1014.5
20260905155506 97 235 0.0 0.0 0.00 0.00 0.00 57 1014.7
20260905155004 96 231 0.0 0.0 0.00 0.00 0.00 60 1014.6
20260905154500 97 227 0.0 0.0 0.00 0.00 0.00 58 1014.7
20260905153955 96 230 0.0 0.0 0.00 0.00 0.00 59 1014.6
20260905153451 96 224 0.0 0.0 0.00 0.00 0.00 63 1014.5
20260905152950 96 225 0.0 0.0 0.00 0.00 0.00 61 1014.6
20260905152445 95 243 0.0 0.0 0.00 0.00 0.00 62 1014.5
20260905151939 95 242 0.0 0.0 0.00 0.00 0.00 65 1014.5
20260905151435 95 226 0.0 0.0 0.00 0.00 0.00 62 1014.9
20260905150930 95 232 0.0 0.0 0.00 0.00 0.00 62 1014.7
20260905150430 95 229 0.0 0.0 0.00 0.00 0.00 62 1014.8
20260905145926 94 228 0.0 0.0 0.00 0.00 0.00 64 1014.6
20260905145421 94 229 0.0 0.0 0.00 0.00 0.00 64 1014.6
20260905144915 93 230 0.0 0.0 0.00 0.00 0.00 65 1014.6
20260905144411 93 275 0.0 0.0 0.00 0.00 0.00 66 1014.8
20260905143909 92 217 0.0 0.0 0.00 0.00 0.00 67 1014.6
20260905143403 90 230 0.0 0.0 0.00 0.00 0.00 72 1014.5
20260905142857 90 228 0.0 0.0 0.00 0.00 0.00 73 1014.6
20260905142355 89 234 0.0 0.0 0.00 0.00 0.00 72 1014.6
20260905141852 89 246 0.0 0.0 0.00 0.00 0.00 73 1014.6
20260905141347 89 264 0.0 0.0 0.00 0.00 0.00 75 1014.7
20260905140843 89 228 0.0 0.0 0.00 0.00 0.00 79 1014.8
20260905140343 89 224 0.0 0.0 0.00 0.00 0.00 77 1014.5
20260905135842 89 227 0.0 0.0 0.00 0.00 0.00 80 1014.5
20260905135338 87 226 0.0 0.0 0.00 0.00 0.00 83 1014.5
20260905134834 87 234 0.0 0.0 0.00 0.00 0.00 83 1014.5
20260905134332 86 233 0.0 0.0 0.00 0.00 0.00 86 1014.5
20260905133827 86 233 0.0 0.0 0.00 0.00 0.00 86 1014.4
20260905133323 85 226 0.0 0.0 0.00 0.00 0.00 87 1014.3
20260905132821 85 226 0.0 0.0 0.00 0.00 0.00 89 1014.4
20260905132317 84 226 0.0 0.0 0.00 0.00 0.00 91 1014.3
20260905131811 82 225 0.0 0.0 0.00 0.00 0.00 93 1014.5
20260905131307 82 228 0.0 0.0 0.00 0.00 0.00 95 1014.3
20260905130802 81 228 0.0 0.0 0.00 0.00 0.00 97 1014.4
20260905130300 80 228 0.0 0.0 0.00 0.00 0.00 99 1014.5
20260905125756 80 228 0.0 0.0 0.00 0.00 0.00 99 1014.5
20260905125251 79 227 0.0 0.0 0.00 0.00 0.00 99 1014.2
20260905124747 79 227 0.0 0.0 0.00 0.00 0.00 99 1014.2
20260905124243 78 227 0.0 0.0 0.00 0.00 0.00 99 1014.0
20260905123738 77 226 0.0 0.0 0.00 0.00 0.00 99 1014.3
20260905123235 77 224 0.0 0.0 0.00 0.00 0.00 99 1014.3
20260905122734 76 225 0.0 0.0 0.00 0.00 0.00 99 1014.2
20260905122228 75 225 0.0 0.0 0.00 0.00 0.00 99 1014.2
20260905121723 75 227 0.0 0.0 0.00 0.00 0.00 99 1014.1
20260905121220 74 229 0.0 0.0 0.00 0.00 0.00 99 1014.1
20260905120718 74 228 0.0 0.0 0.00 0.00 0.00 99 1013.9
20260905120213 73 229 0.0 0.0 0.00 0.00 0.00 99 1014.0
20260905115708 73 230 0.0 0.0 0.00 0.00 0.00 99 1013.9
20260905115202 73 227 0.0 0.0 0.00 0.00 0.00 99 1013.8
20260905114702 74 226 0.0 0.0 0.00 0.00 0.00 99 1014.0
20260905114200 74 224 0.0 0.0 0.00 0.00 0.00 99 1014.0
20260905113655 73 225 0.0 0.0 0.00 0.00 0.00 99 1013.6
20260905113151 73 227 0.0 0.0 0.00 0.00 0.00 99 1013.8
20260905112651 73 227 0.0 0.0 0.00 0.00 0.00 99 1014.0
20260905112147 73 227 0.0 0.0 0.00 0.00 0.00 99 1013.7
20260905111646 73 227 0.0 0.0 0.00 0.00 0.00 99 1013.7
20260905111146 73 225 0.0 0.0 0.00 0.00 0.00 99 1013.7
20260905110645 74 223 0.0 0.0 0.00 0.00 0.00 99 1013.7
20260905110140 74 222 0.0 0.0 0.00 0.00 0.00 99 1013.5
20260905105635 74 197 0.0 0.0 0.00 0.00 0.00 99 1013.7
20260905105134 74 198 0.0 0.0 0.00 0.00 0.00 99 1013.6
20260905104629 74 227 0.0 0.0 0.00 0.00 0.00 99 1013.3
20260905104125 74 223 0.0 0.0 0.00 0.00 0.00 99 1013.3
20260905103620 74 227 0.0 0.0 0.00 0.00 0.00 99 1013.4
20260905103116 74 229 0.0 0.0 0.00 0.00 0.00 99 1013.6
20260905102611 74 226 0.0 0.0 0.00 0.00 0.00 99 1013.3
20260905102108 74 143 0.0 0.0 0.00 0.00 0.00 99 1013.5
20260905101606 74 202 0.0 0.0 0.00 0.00 0.00 99 1013.3
20260905101104 74 218 0.0 0.0 0.00 0.00 0.00 99 1013.4
20260905100601 74 205 0.0 0.0 0.00 0.00 0.00 99 1013.5
20260905100101 73 222 0.0 0.0 0.00 0.00 0.00 99 1013.5
20260905095555 73 242 0.0 0.0 0.00 0.00 0.00 99 1013.3
20260905095050 73 236 0.0 0.0 0.00 0.00 0.00 99 1013.5
20260905094546 73 229 0.0 0.0 0.00 0.00 0.00 99 1013.4
20260905094045 74 229 0.0 0.0 0.00 0.00 0.00 99 1013.3
20260905093544 74 225 0.0 0.0 0.00 0.00 0.00 99 1013.3
20260905093042 74 225 0.0 0.0 0.00 0.00 0.00 99 1013.3
20260905092541 74 224 0.0 0.0 0.00 0.00 0.00 99 1013.5
20260905092037 73 225 0.0 0.0 0.00 0.00 0.00 99 1013.4
20260905091531 74 232 0.0 0.0 0.00 0.00 0.00 99 1013.2
20260905091031 74 222 0.0 0.0 0.00 0.00 0.00 99 1013.3
20260905090525 74 216 0.0 0.0 0.00 0.00 0.00 99 1013.4
20260905090021 74 227 0.0 0.0 0.00 0.00 0.00 99 1013.6
20260905085519 74 221 0.0 0.0 0.00 0.00 0.00 99 1013.4
20260905085015 74 231 0.0 0.0 0.00 0.00 0.00 99 1013.6
20260905084515 74 234 0.0 0.0 0.00 0.00 0.00 99 1013.6
20260905084009 74 225 0.0 0.0 0.00 0.00 0.00 99 1013.1
20260905083504 74 229 0.0 0.0 0.00 0.00 0.00 99 1013.2
20260905083001 74 228 0.0 0.0 0.00 0.00 0.00 99 1013.3
20260905082456 75 235 0.0 0.0 0.00 0.00 0.00 99 1013.2
20260905081951 75 197 0.0 0.0 0.00 0.00 0.00 99 1013.4
20260905081446 75 218 0.0 0.0 0.00 0.00 0.00 99 1013.4
20260905080944 75 219 0.0 0.0 0.00 0.00 0.00 99 1013.2
20260905080434 75 226 0.0 0.0 0.00 0.00 0.00 99 1013.4
20260905075932 75 226 0.0 0.0 0.00 0.00 0.00 99 1013.3
20260905075428 75 228 0.0 0.0 0.00 0.00 0.00 99 1013.4
20260905074926 75 226 0.0 0.0 0.00 0.00 0.00 99 1013.5
20260905074422 74 226 0.0 0.0 0.00 0.00 0.00 99 1013.3
20260905073918 75 228 0.0 0.0 0.00 0.00 0.00 99 1013.4
20260905073413 75 228 0.0 0.0 0.00 0.00 0.00 99 1013.4
20260905072909 75 222 0.0 0.0 0.00 0.00 0.00 99 1013.4
20260905072403 75 210 0.0 0.0 0.00 0.00 0.00 99 1013.4
20260905071858 75 235 0.0 0.0 0.00 0.00 0.00 99 1013.4
20260905071349 75 223 0.0 0.0 0.00 0.00 0.00 99 1013.7
20260905070843 75 224 0.0 0.0 0.00 0.00 0.00 99 1013.5
20260905070340 75 229 0.0 0.0 0.00 0.00 0.00 99 1013.6
20260905065839 75 229 0.0 0.0 0.00 0.00 0.00 99 1013.5
20260905065337 75 226 0.0 0.0 0.00 0.00 0.00 99 1013.6
20260905064833 75 227 0.0 0.0 0.00 0.00 0.00 99 1013.6
20260905064329 75 226 0.0 0.0 0.00 0.00 0.00 99 1013.8
20260905063827 75 225 0.0 0.0 0.00 0.00 0.00 99 1013.7
20260905063323 75 226 0.0 0.0 0.00 0.00 0.00 99 1013.5
20260905062819 76 227 0.0 0.0 0.00 0.00 0.00 98 1013.8
20260905062313 76 233 0.0 0.0 0.00 0.00 0.00 98 1013.7
20260905061808 76 219 0.0 0.0 0.00 0.00 0.00 98 1013.6
20260905061308 76 232 0.0 0.0 0.00 0.00 0.00 98 1013.7
20260905060802 76 234 0.0 0.0 0.00 0.00 0.00 97 1013.6
20260905060259 76 227 0.0 0.0 0.00 0.00 0.00 97 1013.6
20260905055752 77 223 0.0 0.0 0.00 0.00 0.00 97 1013.7
20260905055247 76 220 0.0 0.0 0.00 0.00 0.00 98 1013.7
20260905054742 77 224 0.0 0.0 0.00 0.00 0.00 97 1013.8
20260905054239 77 219 0.0 0.0 0.00 0.00 0.00 97 1013.8
20260905053737 77 227 0.0 0.0 0.00 0.00 0.00 97 1013.8
20260905053233 77 217 0.0 0.0 0.00 0.00 0.00 97 1013.6
20260905052727 77 209 0.0 0.0 0.00 0.00 0.00 98 1013.8
20260905052222 77 228 0.0 0.0 0.00 0.00 0.00 97 1013.7
20260905051721 77 225 0.0 0.0 0.00 0.00 0.00 98 1014.0
20260905051218 77 225 0.0 0.0 0.00 0.00 0.00 97 1013.9
20260905050714 77 233 0.0 0.0 0.00 0.00 0.00 97 1013.8
20260905050211 77 231 0.0 0.0 0.00 0.00 0.00 97 1013.7
20260905045710 77 231 0.0 0.0 0.00 0.00 0.00 97 1013.8
20260905045206 77 232 0.0 0.0 0.00 0.00 0.00 96 1013.7
20260905044701 77 232 0.0 0.0 0.00 0.00 0.00 96 1013.7
20260905044155 77 228 0.0 0.0 0.00 0.00 0.00 96 1013.9
20260905043654 77 228 0.0 0.0 0.00 0.00 0.00 95 1013.8
20260905043149 77 225 0.0 0.0 0.00 0.00 0.00 95 1013.8
20260905042649 78 228 0.0 0.0 0.00 0.00 0.00 94 1013.8
20260905042143 78 220 0.0 0.0 0.00 0.00 0.00 95 1014.0
20260905041639 78 220 0.0 0.0 0.00 0.00 0.00 95 1014.0
20260905041134 78 222 0.0 0.0 0.00 0.00 0.00 95 1014.2
20260905040629 78 228 0.0 0.0 0.00 0.00 0.00 95 1014.1
20260905040127 78 229 0.0 0.0 0.00 0.00 0.00 94 1014.3
20260905035623 78 229 0.0 0.0 0.00 0.00 0.00 94 1014.0
20260905035120 78 228 0.0 0.0 0.00 0.00 0.00 94 1014.0
20260905034615 78 230 0.0 0.0 0.00 0.00 0.00 94 1014.1
20260905034114 78 227 0.0 0.0 0.00 0.00 0.00 93 1013.9
20260905033614 78 226 0.0 0.0 0.00 0.00 0.00 93 1014.0
20260905033109 78 227 0.0 0.0 0.00 0.00 0.00 93 1013.9
20260905032604 79 226 0.0 0.0 0.00 0.00 0.00 93 1013.9
20260905032104 79 227 0.0 0.0 0.00 0.00 0.00 91 1013.9
20260905031600 79 234 0.0 0.0 0.00 0.00 0.00 90 1014.1
20260905031100 80 231 0.0 0.0 0.00 0.00 0.00 89 1014.1
20260905030555 80 228 0.0 0.0 0.00 0.00 0.00 88 1014.0
20260905030050 80 226 0.0 0.0 0.00 0.00 0.00 88 1013.8
20260905025041 80 225 0.0 0.0 0.00 0.00 0.00 89 1014.0
20260905024536 80 223 0.0 0.0 0.00 0.00 0.00 89 1014.0
20260905024032 80 229 0.0 0.0 0.00 0.00 0.00 89 1013.8
20260905023527 80 230 0.0 0.0 0.00 0.00 0.00 89 1013.9
20260905023021 80 226 0.0 0.0 0.00 0.00 0.00 88 1014.0